#timestamp,LO_Frequency,Hit,StdDev 
1514199615.6,286046999.2,N
1514199635.4,286046999.2,N
1514199655.2,286046996.7,N
1514199675.1,286046996.6,N
1514199676.0,286046996.6,N
1514199695.8,286046999.6,N
1514199715.6,286046997.1,N
1514199735.5,286046998.8,N
1514199755.3,286046998.9,N
1514199775.2,286046995.4,N
1514199795.9,286046996.4,N
1514199815.7,286046993.8,Y
1514199835.6,286046995.7,P
1514199855.4,286046997.0,N
1514199875.3,286046999.5,N
1514199895.1,286046997.6,N
1514199896.0,286046997.6,N
1514199915.8,286046995.1,Y
1514199935.7,286046999.9,P
1514199955.5,286047000.9,N
1514199975.4,286047001.9,N
1514199995.2,286047002.5,N
1514200015.0,286047003.1,N
1514200015.9,286047003.1,N
1514200035.8,286047004.3,N
1514200055.6,286047004.5,N
1514200075.5,286047007.1,Y
1514200095.3,286047004.3,P
1514200115.1,286047004.8,P
1514200135.9,286047001.8,N
1514200155.7,286047002.4,N
1514200175.5,286047002.5,N
1514200195.4,286047003.2,N
1514200215.2,286047001.5,N
1514200235.1,286047003.9,Y
1514200236.0,286047003.9,P
1514200255.8,286046998.2,P
1514200275.6,286046996.9,N
1514200295.5,286046996.7,N
1514200315.3,286046995.6,N
1514200335.1,286046999.0,N
1514200355.9,286046994.9,N
1514200375.7,286046994.2,N
1514200395.6,286046993.3,N
1514200415.4,286046995.1,N
1514200435.2,286046995.2,N
1514200455.1,286046997.3,N
1514200456.0,286046997.3,N
1514200475.8,286046997.4,N
1514200495.7,286046999.5,N
1514200515.5,286046997.9,N
1514200535.3,286046996.8,N
1514200555.2,286046995.4,N
1514200575.0,286046995.4,N
1514200575.9,286046995.4,N
1514200595.7,286046998.9,N
1514200615.6,286046995.5,N
1514200635.4,286046995.6,N
1514200655.3,286046995.5,N
1514200675.1,286046996.2,N
1514200676.0,286046996.2,N
1514200695.8,286046995.4,N
1514200715.7,286046994.8,N
1514200735.5,286046992.7,Y
1514200755.4,286046995.5,P
1514200775.2,286046994.5,P
1514200795.0,286046991.5,P
1514200795.9,286046991.5,Y
1514200815.8,286046996.7,P
1514200835.6,286046995.7,P
1514200855.5,286046998.0,N
1514200875.3,286046999.5,N
1514200895.1,286046999.2,N
1514200915.9,286046998.7,N
1514200935.7,286046996.5,N
1514200955.5,286047001.2,N
1514200975.4,286046997.0,N
1514200995.2,286046996.6,N
1514201015.1,286046998.8,N
1514201016.0,286046998.8,N
1514201035.8,286047001.2,N
1514201055.6,286046999.7,N
1514201075.5,286047000.8,N
1514201095.3,286046999.9,N
1514201115.1,286047000.3,N
1514201135.9,286047004.0,N
1514201155.7,286047003.6,N
1514201175.6,286047000.1,N
1514201195.4,286047002.4,N
1514201215.2,286047001.9,N
1514201235.1,286047002.3,N
1514201236.0,286047002.3,N
1514201255.8,286047004.4,N
1514201275.7,286047002.2,N
1514201295.5,286047002.4,N
1514201315.3,286047001.9,N
1514201335.2,286047004.2,N
1514201355.9,286047001.8,N
1514201375.7,286047002.8,N
1514201395.6,286047002.2,N
1514201415.4,286047002.7,N
1514201435.3,286047001.9,N
1514201455.1,286047002.6,N
1514201456.0,286047002.6,N
1514201475.8,286047000.7,N
1514201495.7,286046999.0,N
1514201515.5,286047002.4,N
1514201535.3,286046998.1,N
1514201555.2,286047000.0,N
1514201575.0,286047000.6,N
1514201575.9,286047000.6,N
1514201595.8,286047001.8,N
1514201615.6,286047000.5,N
1514201635.4,286047002.6,N
1514201655.3,286047002.4,N
1514201675.1,286047000.7,N
1514201695.9,286047000.5,N
1514201715.7,286047001.4,N
1514201735.5,286047001.3,N
1514201755.4,286047000.0,N
1514201775.2,286047000.3,N
1514201795.0,286046998.9,N
1514201796.0,286046998.9,N
1514201815.8,286047002.1,N
1514201835.6,286047002.3,N
1514201855.5,286047004.2,N
1514201875.3,286047002.3,N
1514201895.1,286047002.4,N
1514201915.9,286047001.6,N
1514201935.7,286047001.6,N
1514201955.6,286047003.3,N
1514201975.4,286047003.5,N
1514201995.2,286047003.4,N
1514202015.1,286047001.4,N
1514202016.0,286047001.4,N
1514202035.8,286047005.4,Y
1514202055.7,286047005.1,P
1514202075.5,286047005.3,N
1514202095.3,286047004.7,N
1514202115.2,286047005.5,Y
1514202135.0,286047001.5,P
1514202135.9,286047001.5,N
1514202155.8,286047001.6,N
1514202175.6,286047001.3,N
1514202195.4,286047001.8,N
1514202215.3,286047003.3,Y
1514202235.1,286047001.8,P
1514202255.8,286047003.5,P
1514202275.7,286047003.5,P
1514202295.5,286047002.3,N
1514202315.4,286047000.3,N
1514202335.2,286046999.9,N
1514202355.0,286047000.5,N
1514202355.9,286047000.5,N
1514202375.8,286047002.7,N
1514202395.6,286047000.4,N
1514202415.5,286047000.1,N
1514202435.3,286046998.1,N
1514202455.1,286046999.2,N
1514202475.9,286047001.0,N
1514202495.7,286047000.2,N
1514202515.5,286047000.1,N
1514202535.4,286047000.0,N
1514202555.2,286047000.8,N
1514202575.1,286046998.2,N
1514202576.0,286046998.2,N
1514202595.8,286047001.6,N
1514202615.6,286047003.9,N
1514202635.5,286047005.3,Y
1514202655.3,286047002.1,P
1514202675.2,286047002.1,P
1514202695.9,286047000.4,N
1514202715.7,286046996.9,Y
1514202735.6,286046995.6,P
1514202755.4,286046996.3,N
1514202775.3,286046995.2,N
1514202795.1,286046998.0,N
1514202796.0,286046998.0,N
1514202815.8,286046997.8,N
1514202835.7,286046999.6,N
1514202855.5,286046996.6,N
1514202875.3,286046998.5,N
1514202895.2,286046998.5,N
1514202915.0,286046999.9,N
1514202915.9,286046999.9,N
1514202935.8,286047000.3,N
1514202955.6,286046998.5,N
1514202975.4,286047000.7,N
1514202995.3,286046999.1,N
1514203015.1,286046998.5,N
1514203035.9,286047000.6,N
1514203055.7,286047002.4,N
1514203075.5,286047000.8,N
1514203095.4,286046998.2,N
1514203115.2,286047000.4,N
1514203135.0,286047000.2,N
1514203135.9,286047000.2,N
1514203155.8,286047000.4,N
1514203175.6,286047002.7,N
1514203195.5,286046999.8,N
